Погода в Ричмонде

Австралия     33°36′02″S   150°45′11″E
темп.,
°C
ветер,
м/с
пор.,
м/с
влажн.,
%
обл.,
%
осадки,
мм/ч
давл.,
гПа
погр.,
м
28 октября, чт
чт2823:00+14з2181100 0.0 101716
02:00+13сз117085 0.0 101412
05:00+13ссз1156100 0.0 101313
08:00+20с11318 0.0 1013173
11:00+31вюв2215100 0.0 10111203
14:00+35юв3510100 0.0 10083192
17:00+31зюз1520100 0.0 1007569
20:00+21зсз113937 0.0 100811
29 октября, пт
пт2923:00+18зсз1139100 0.0 100812
02:00+18зсз2240100 0.0 100726
05:00+20ссз2438100 0.0 100570
08:00+23ссз31245100 0.0 1005773
11:00+30ссз61335100 0.0 10041464
14:00+35сз6162236 0.0 10014126
17:00+33з518190 0.0 10003066
20:00+23з24230 0.0 1005319
30 октября, сб
сб3023:00+17сз11310 0.0 100911
02:00+14зюз11500 0.0 101012
05:00+12зсз11650 0.0 101319
08:00+17юз01470 0.0 1015374
11:00+24вюв362828 0.0 10152647
14:00+21вюв564085 0.0 10141062
17:00+19юв554697 0.0 10171628
20:00+14юв3658100 0.0 10211104
31 октября, вс
вс3123:00+14ююв2559100 0.0 1024877
02:00+12ююз257099 0.1 1024483
05:00+8з21903 0.1 102429
08:00+14ююз12580 0.0 1026583
11:00+20юв22354 0.0 10251900
14:00+23в43287 0.0 10222529
17:00+21в53369 0.0 10221781
20:00+14в25610 0.0 1025203
1 ноября, пн
пн123:00+10зсз11800 0.0 102817
02:00+9сз118890 0.0 102712
05:00+8зсз1192100 0.0 102711
08:00+15в016277 0.0 1028271
11:00+22св2336100 0.0 10271340
14:00+28всв222288 0.0 10242033
17:00+25вюв5536100 0.0 10231014
20:00+16всв117140 0.0 102619